Location: Unspecified
(0.0000°N, 0.0000°E)
Time: 07:56:12
(UTC+00:00)

Vanguard 2 Rocket - All Passes

Search period start: 20 October 2021 00:00
Search period end: 30 October 2021 00:00
Orbit: 556 x 3323 km, 32.9° (Epoch: 19 October)

Date Brightness Start Highest point End Pass type
(mag) Time Alt. Az. Time Alt. Az. Time Alt. Az.
20 Oct - 01:42:13 10° SW 02:02:19 61° SSE 02:16:53 10° ENE visible
20 Oct - 04:01:52 10° WSW 04:19:52 59° NW 04:30:48 10° NE visible
20 Oct - 06:28:41 10° WNW 06:35:06 15° NW 06:40:06 10° N daylight
20 Oct - 13:22:25 10° N 13:25:03 16° NE 13:28:08 10° ENE daylight
20 Oct - 15:32:44 10° WNW 15:37:45 60° SSW 15:46:14 10° SE daylight
20 Oct - 17:48:02 10° WSW 17:53:49 20° SSW 18:02:02 10° SSE daylight
20 Oct - 20:07:48 10° SSW 20:14:14 14° S 20:21:56 10° SSE visible
20 Oct - 22:24:39 10° SSW 22:37:43 23° SSE 22:51:53 10° ESE visible
21 Oct - 00:40:23 10° SW 00:59:34 48° SSE 01:15:32 10° E visible
21 Oct - 02:58:26 10° WSW 03:18:27 80° NW 03:31:21 10° NE visible
21 Oct - 05:22:07 10° W 05:34:25 27° NW 05:42:42 10° NNE visible
21 Oct - 14:33:41 10° NW 14:38:07 78° NE 14:45:01 10° ESE daylight
21 Oct - 16:47:32 10° WSW 16:52:45 24° SSW 17:00:30 10° SSE daylight
21 Oct - 19:06:33 10° SSW 19:11:24 13° S 19:17:13 10° SSE visible
21 Oct - 21:24:03 10° SSW 21:34:01 18° SSE 21:45:36 10° SE visible
21 Oct - 23:39:04 10° SSW 23:56:29 38° SSE 00:13:04 10° E visible
22 Oct - 01:55:45 10° SW 02:16:26 80° SE 02:31:16 10° ENE visible
22 Oct - 04:16:57 10° WSW 04:33:30 42° NW 04:44:10 10° NNE visible
22 Oct - 13:35:05 10° NNW 13:38:49 35° NE 13:43:47 10° ESE daylight
22 Oct - 15:47:30 10° W 15:52:13 31° SSW 15:59:29 10° SE daylight
22 Oct - 18:05:16 10° SSW 18:09:17 13° S 18:14:13 10° SSE visible
22 Oct - 20:23:52 10° SSW 20:30:32 14° S 20:38:21 10° SE visible
22 Oct - 22:38:17 10° SSW 22:53:12 29° SSE 23:09:11 10° E visible
23 Oct - 00:53:45 10° SW 01:13:54 64° SE 01:30:25 10° ENE visible
23 Oct - 03:12:49 10° WSW 03:32:08 60° NW 03:44:58 10° NE visible
23 Oct - 05:39:30 10° WNW 05:48:31 18° NW 05:55:17 10° N daylight
23 Oct - 12:37:09 10° N 12:39:31 15° NE 12:42:04 10° ENE daylight
23 Oct - 14:47:54 10° WNW 14:52:13 48° SSW 14:58:47 10° SE daylight
23 Oct - 17:04:04 10° SW 17:07:51 14° SSW 17:12:39 10° SSE daylight
23 Oct - 19:24:21 10° S 19:27:30 11° S 19:30:58 10° SSE visible
23 Oct - 21:38:00 10° SSW 21:49:51 22° SSE 22:03:41 10° ESE visible
23 Oct - 23:52:23 10° SW 00:11:03 50° SSE 00:28:38 10° ENE visible
24 Oct - 02:09:38 10° WSW 02:30:15 79° NW 02:45:11 10° NE visible
24 Oct - 04:33:00 10° W 04:47:21 30° NW 04:57:15 10° NNE visible
24 Oct - 13:48:41 10° NW 13:52:41 87° NE 13:58:13 10° SE daylight
24 Oct - 16:03:16 10° WSW 16:07:01 17° SSW 16:11:59 10° SSE daylight
24 Oct - 20:38:20 10° SSW 20:46:37 16° SSE 20:56:33 10° SE visible
24 Oct - 22:51:37 10° SSW 23:08:03 38° SSE 23:25:38 10° E visible
25 Oct - 01:07:19 10° SW 01:27:53 82° SE 01:44:44 10° ENE visible
25 Oct - 03:27:55 10° WSW 03:45:52 43° NW 03:58:20 10° NNE visible
25 Oct - 05:58:53 10° NW 06:03:11 12° NNW 06:06:55 10° N daylight
25 Oct - 12:49:48 10° NNW 12:53:26 36° NE 12:57:38 10° ESE daylight
25 Oct - 15:02:56 10° WSW 15:06:40 23° SSW 15:11:48 10° SSE daylight
25 Oct - 19:39:53 10° S 19:43:38 11° SSE 19:47:50 10° SSE visible
25 Oct - 21:51:26 10° SSW 22:05:04 29° SSE 22:21:09 10° E visible
26 Oct - 00:05:46 10° SW 00:25:11 66° SE 00:43:28 10° ENE visible
26 Oct - 02:24:02 10° WSW 02:43:58 60° NW 02:58:46 10° NE visible
26 Oct - 04:50:15 10° WNW 05:01:36 21° NW 05:10:05 10° N visible
26 Oct - 11:51:23 10° N 11:54:02 17° NNE 11:56:39 10° ENE daylight
26 Oct - 14:03:02 10° W 14:06:50 38° SSW 14:11:51 10° SE daylight
26 Oct - 20:51:52 10° SSW 21:02:12 21° SSE 21:14:58 10° ESE visible
26 Oct - 23:04:55 10° SW 23:22:23 51° SE 23:41:11 10° ENE visible
27 Oct - 01:21:15 10° WSW 01:41:40 77° NW 01:58:36 10° NE visible
27 Oct - 03:43:56 10° W 03:59:51 31° NW 04:11:29 10° NNE visible
27 Oct - 13:03:29 10° WNW 13:07:23 81° SW 13:11:58 10° SE daylight
27 Oct - 15:19:41 10° SW 15:21:25 11° SSW 15:23:24 10° S daylight
27 Oct - 19:53:15 10° S 19:59:29 14° SSE 20:06:58 10° SE visible
27 Oct - 22:04:41 10° SSW 22:19:41 38° SSE 22:37:38 10° E visible
28 Oct - 00:19:23 10° SW 00:39:04 84° SE 00:57:43 10° ENE visible
28 Oct - 02:39:09 10° WSW 02:57:50 44° NW 03:12:07 10° NNE visible
28 Oct - 05:08:54 10° WNW 05:16:28 14° NNW 05:22:38 10° N visible
28 Oct - 12:04:12 10° NW 12:08:08 42° NE 12:11:58 10° ESE daylight
28 Oct - 14:18:26 10° WSW 14:21:14 17° SSW 14:24:34 10° SSE daylight
28 Oct - 21:05:04 10° SSW 21:17:09 28° SSE 21:32:35 10° E visible
28 Oct - 23:18:19 10° SW 23:36:22 67° SE 23:55:58 10° ENE visible
29 Oct - 01:35:41 10° WSW 01:55:28 59° NW 02:12:08 10° NE visible
29 Oct - 04:01:06 10° WNW 04:14:20 23° NNW 04:24:30 10° NNE visible
29 Oct - 11:05:08 10° NNW 11:08:38 21° NNE 11:11:40 10° E daylight
29 Oct - 13:18:00 10° W 13:21:29 30° SSW 13:25:26 10° SSE daylight
29 Oct - 20:06:11 10° S 20:14:49 19° SSE 20:25:51 10° ESE visible
29 Oct - 22:17:58 10° SW 22:33:48 51° SE 22:53:10 10° ENE visible
